RH
47 46 45 43 41 39 37 35 33 32 31 31 32 32 29 25 21 18 17 17 17 17 17 16 15 15 15 15 15 15 16 16 16 17 17 17 17 17 17 18 19 19 21 23 25 27 27 26 26 27 29 33 35 35 35 35 34 34 34 35 37 39 40 41 40 36 35 35 34 34 33 31 30 31 32 32 31 30 29 30 33 36 36 34 34
46 44 42 40 38 37 36 34 33 32 33 33 32 29 26 22 20 19 19 19 19 18 18 17 17 17 16 17 17 17 18 18 19 19 20 19 19 19 19 20 21 22 23 25 27 28 29 30 30 29 29 31 33 34 34 35 36 36 37 39 41 42 43 42 41 40 39 38 35 35 35 34 32 33 35 36 35 35 34 35 37 40 40 40 38
43 42 40 39 38 37 35 34 34 34 34 33 30 26 24 23 22 21 21 21 20 20 19 19 19 19 19 19 20 20 21 21 22 23 22 22 21 21 22 23 24 25 26 27 28 30 32 33 33 34 34 33 32 33 34 35 37 38 40 42 43 44 43 41 40 40 40 39 37 37 37 37 36 36 39 42 42 41 41 42 43 45 45 44 43
42 41 40 38 37 36 36 36 36 36 34 30 27 25 25 24 24 24 23 23 22 22 22 21 21 21 22 22 23 24 24 25 25 24 24 24 24 24 25 26 26 26 27 28 29 30 31 32 32 33 34 34 33 34 35 37 38 40 42 43 44 43 42 40 39 39 39 38 39 39 39 40 41 41 44 47 49 46 46 48 50 52 51 49 47
41 39 38 37 36 36 37 38 37 35 31 29 27 27 27 26 26 26 25 25 25 25 24 25 25 25 25 26 26 27 27 27 26 26 26 27 27 28 27 27 27 27 27 27 28 29 30 31 32 33 33 34 35 36 37 39 41 42 42 43 43 42 41 40 40 40 40 40 42 43 43 44 45 46 48 52 53 52 51 53 57 58 57 55 52
39 37 36 36 36 37 38 38 36 33 31 30 30 29 29 29 29 29 29 28 28 28 28 28 28 28 28 29 29 29 28 28 28 29 29 30 30 30 29 28 28 27 27 27 28 29 30 32 33 34 35 35 36 38 40 41 42 43 43 43 43 43 43 43 45 46 46 46 48 50 49 49 50 51 52 54 55 55 55 59 62 63 62 60 57
37 36 36 37 38 39 39 37 36 34 33 33 32 32 32 32 32 32 32 32 31 31 30 30 30 31 30 30 30 30 30 31 32 32 32 32 32 30 29 29 29 29 29 29 30 31 32 33 34 34 34 34 35 38 41 42 42 43 43 43 44 45 47 50 53 55 55 55 55 56 55 54 54 55 55 56 57 57 58 63 65 65 65 64 62
35 36 37 39 40 41 40 39 38 37 36 36 36 35 35 35 35 34 34 34 34 33 32 32 32 32 32 33 33 34 34 35 35 35 33 32 31 30 29 30 31 32 33 33 33 34 34 34 34 34 32 33 34 36 38 40 42 43 43 44 47 50 54 58 62 62 61 60 60 60 60 59 58 58 58 58 58 59 63 68 68 66 67 67 65
37 39 41 41 42 42 41 41 40 39 39 38 38 37 37 36 36 36 36 36 35 34 34 34 34 35 36 37 37 37 37 36 35 34 33 32 33 33 33 35 35 36 36 36 36 36 35 35 35 34 33 33 36 38 37 39 41 41 43 48 54 58 61 63 65 65 64 62 61 62 62 60 60 62 61 61 62 66 70 73 69 68 71 71 67
43 44 44 44 44 43 43 42 41 40 40 39 38 38 38 38 39 39 39 39 39 39 39 39 39 40 39 39 38 38 36 35 34 33 33 36 38 39 38 38 37 37 36 36 35 35 35 34 34 34 34 35 38 40 40 41 41 41 46 55 62 64 65 65 66 65 64 61 62 64 64 62 63 66 67 69 72 75 77 75 70 72 77 75 68
52 51 50 49 49 48 47 46 45 45 44 44 44 44 44 45 45 45 46 45 45 44 43 42 42 42 40 39 37 36 35 34 34 33 34 37 41 41 40 39 38 37 37 36 36 35 35 34 33 33 34 35 38 40 41 42 43 48 56 64 68 68 68 68 68 67 66 65 65 68 69 68 69 71 74 76 77 78 78 76 74 77 81 78 70
55 55 54 54 53 53 52 52 51 51 50 50 49 49 49 49 49 49 49 48 47 45 44 43 41 41 40 38 36 36 35 34 35 35 36 37 40 42 41 40 38 38 37 36 35 34 34 34 33 32 33 35 38 41 40 41 47 56 64 68 70 71 71 70 69 69 71 72 72 74 75 75 77 77 77 77 77 77 79 78 79 83 87 82 73
56 55 55 54 54 54 54 53 53 52 52 51 51 50 50 50 50 50 49 47 46 44 43 42 40 40 39 38 37 36 35 36 36 37 38 38 41 42 41 40 39 38 38 38 36 35 34 33 32 31 31 35 40 42 43 49 57 63 66 67 69 73 74 74 74 74 75 76 76 76 78 80 81 78 77 76 76 77 80 82 86 90 91 84 75
56 55 55 55 55 55 54 53 53 52 52 52 51 50 50 50 50 50 49 47 46 44 42 41 40 40 40 39 38 37 37 38 38 37 38 39 39 41 43 44 43 43 43 44 43 41 39 37 35 33 33 37 42 45 50 62 70 71 70 70 72 75 77 79 82 82 80 78 76 76 79 81 80 77 76 77 78 80 83 87 91 91 88 82 77
57 56 56 56 56 55 55 54 54 53 52 52 51 51 50 50 50 50 48 47 45 44 43 42 41 41 41 41 40 39 39 39 37 36 36 38 40 44 49 50 51 50 49 49 51 50 48 47 44 41 40 42 45 50 60 73 78 77 76 75 75 78 80 80 83 85 83 80 78 78 78 79 78 77 79 82 83 85 89 92 90 88 85 82 79
57 57 57 58 57 57 57 56 55 54 53 52 52 51 51 51 51 50 49 47 46 44 43 42 42 41 41 42 41 39 38 37 35 34 35 39 45 52 56 57 57 56 54 53 54 55 55 55 52 49 47 48 49 54 67 80 83 83 83 81 80 82 82 81 81 82 82 82 81 80 79 79 81 83 87 90 91 92 94 92 88 87 86 84 83
60 60 60 60 59 59 58 57 56 55 54 53 52 51 51 51 51 50 48 46 45 45 43 42 42 42 41 41 40 37 35 36 36 35 37 44 54 61 63 62 62 61 60 58 58 58 58 58 58 56 54 53 53 57 68 79 83 85 86 85 83 84 83 82 80 79 80 80 81 80 80 81 85 89 93 94 92 91 90 87 87 91 91 88 89
62 62 61 61 60 59 59 58 57 56 55 54 53 52 51 51 51 50 49 47 46 46 44 42 42 42 41 40 40 38 36 36 39 40 42 51 62 67 66 66 65 64 64 62 60 60 59 59 61 62 61 60 58 60 68 77 81 83 85 85 84 84 83 81 79 78 79 79 80 80 80 83 88 92 93 93 90 86 84 85 90 94 94 93 94
62 62 61 60 60 59 59 59 58 57 56 56 54 53 52 52 52 51 50 49 47 46 44 42 40 41 42 42 43 43 41 40 43 47 50 57 66 68 66 67 68 67 66 64 62 62 61 60 60 62 64 64 62 63 69 75 79 81 83 84 85 84 83 80 78 77 77 77 78 80 83 88 93 93 91 91 88 84 84 91 96 96 95 97 97
60 60 60 59 59 59 59 59 58 57 56 55 54 53 52 52 52 51 50 49 48 46 45 43 42 43 45 46 48 49 48 46 47 50 54 60 65 65 65 67 69 68 67 66 64 63 62 62 61 60 61 62 62 65 70 74 78 81 82 84 84 82 81 80 78 77 77 76 78 81 84 88 92 92 89 88 87 85 89 96 98 96 98 99 97
53 53 53 53 54 55 56 56 56 55 55 54 53 52 52 52 51 51 50 50 50 48 47 46 46 46 47 49 52 54 54 52 51 53 57 60 62 63 65 68 73 73 69 67 67 65 63 64 64 62 62 63 64 68 70 73 78 82 83 83 83 81 78 77 77 78 78 78 81 83 85 86 88 87 85 85 87 90 94 97 97 97 98 99 98
47 47 48 50 51 53 55 56 57 57 58 58 57 56 57 57 56 56 55 55 54 53 51 50 50 50 50 54 57 57 56 56 56 57 59 61 60 62 66 72 79 79 72 68 69 67 64 66 68 65 65 67 69 71 72 72 76 81 83 81 79 79 78 77 78 79 79 81 83 84 85 86 85 83 82 85 91 95 96 97 99 99 99 99 99
45 46 48 50 51 54 56 58 60 62 63 64 64 63 63 62 62 61 61 60 59 57 55 55 55 54 54 56 59 60 59 60 61 61 62 63 62 64 71 79 85 84 78 76 77 74 71 74 75 71 71 74 76 76 75 75 75 78 81 81 79 79 80 79 79 80 81 82 84 84 85 85 83 83 86 91 96 97 97 99 100 100 101 101 100
48 49 51 53 54 56 58 60 63 66 68 69 70 70 70 69 68 66 66 66 64 62 59 60 61 59 58 57 59 61 62 62 64 65 66 66 67 70 77 85 87 84 82 83 85 84 84 84 83 80 80 82 82 81 80 79 77 77 78 79 81 83 82 80 81 82 82 82 82 83 84 83 83 87 93 96 96 96 97 100 102 102 102 102 100
50 53 54 56 59 60 62 65 67 70 72 74 75 75 75 75 73 71 71 71 70 67 66 66 67 65 63 61 61 62 64 65 67 69 69 70 73 76 83 87 85 82 84 86 88 89 89 89 87 86 88 89 88 87 86 83 82 81 80 79 81 83 82 80 80 81 82 81 81 82 82 83 87 94 97 97 96 95 96 99 102 102 102 102 100
52 54 55 58 61 64 66 69 71 73 75 77 78 79 80 78 76 75 75 75 74 73 72 72 72 69 67 66 65 64 66 67 68 70 72 75 77 81 87 87 82 80 81 83 85 88 88 87 87 88 91 93 92 90 89 87 86 86 85 84 84 84 83 81 79 80 82 82 81 82 84 88 94 99 100 99 98 97 96 100 102 102 101 102 101
55 56 57 59 62 66 69 71 74 76 78 79 80 82 83 83 81 79 78 77 76 76 76 77 76 73 71 70 69 67 68 70 70 70 75 79 81 84 87 85 80 79 78 77 81 85 87 86 86 88 91 94 94 92 91 91 91 91 90 89 88 87 85 84 82 82 83 83 83 86 91 96 100 101 100 100 100 99 98 100 102 101 101 100 100
58 58 60 61 64 67 71 74 76 78 81 82 83 85 86 86 85 84 83 82 79 77 78 80 79 76 74 73 71 69 70 73 74 75 79 81 80 83 86 85 82 82 82 80 81 85 88 87 87 88 91 93 94 94 93 93 94 94 92 90 89 87 85 85 84 84 82 82 85 93 98 100 101 101 101 100 101 101 99 99 101 101 100 101 100
61 62 63 64 66 69 72 76 79 81 83 85 87 89 90 90 88 86 85 85 85 83 83 82 81 79 78 77 76 74 72 74 79 83 86 85 83 83 85 86 85 85 85 84 84 86 88 88 87 89 91 92 92 92 92 92 93 93 92 90 88 86 84 83 83 83 85 87 92 98 101 101 100 101 101 100 101 100 98 97 98 99 100 100 100
67 68 68 68 69 71 73 76 79 82 85 87 89 91 93 94 94 91 87 84 86 90 92 90 87 85 83 82 81 79 76 77 81 86 90 90 87 87 86 86 86 85 85 85 86 87 88 88 88 89 91 91 91 90 90 90 90 90 90 89 87 86 84 82 80 83 90 96 98 100 101 100 99 100 100 100 101 101 98 96 96 96 98 99 99
71 72 72 73 74 74 74 76 78 82 86 89 91 91 92 93 96 97 94 88 85 89 94 96 95 92 88 84 83 82 80 79 82 87 90 90 88 88 88 88 88 86 84 85 86 87 88 87 88 89 90 90 90 89 88 89 89 88 87 87 86 85 84 83 83 87 95 99 100 100 100 98 98 100 100 100 101 100 100 98 96 95 97 98 99
74 75 77 78 78 77 77 77 78 81 85 89 93 94 92 91 92 94 96 94 90 88 91 94 95 94 91 87 85 84 82 82 84 89 91 89 89 90 90 90 89 88 85 84 85 88 90 89 88 89 89 89 88 88 87 87 87 86 86 85 84 85 85 87 91 95 99 100 100 100 99 98 98 100 100 100 100 100 100 100 98 96 98 99 99
76 78 80 82 82 81 80 79 79 81 84 88 92 95 95 93 91 89 91 93 92 90 90 91 92 92 91 90 89 87 84 84 85 89 90 89 88 90 90 89 90 90 87 86 86 90 93 93 90 89 89 89 88 88 88 88 87 87 87 86 86 87 89 93 98 100 100 100 100 100 99 98 99 101 100 100 100 100 100 100 98 98 99 100 100
76 80 82 84 85 86 84 81 80 81 85 88 92 94 95 96 95 92 90 90 90 90 90 90 92 92 91 91 92 91 88 87 86 87 89 89 88 88 89 89 89 88 87 87 88 91 95 96 94 92 91 90 89 88 88 89 88 89 90 90 90 92 96 98 100 100 100 100 100 100 99 99 100 101 100 100 100 100 100 100 100 99 100 100 100
75 79 83 86 88 89 88 85 82 82 84 88 92 94 95 95 96 96 95 93 92 91 90 89 90 93 93 92 92 92 91 89 88 87 89 89 88 88 89 89 87 86 86 87 90 92 93 95 97 96 93 91 91 90 91 90 90 91 93 94 95 97 100 100 100 100 100 100 100 100 100 100 100 100 100 100 100 100 100 100 100 100 99 100 100
76 79 82 86 89 91 91 89 86 84 85 88 90 93 94 95 96 97 98 97 96 94 92 88 88 91 94 93 92 92 91 90 89 89 90 89 87 87 87 87 87 88 88 89 91 94 94 94 96 98 97 94 93 93 93 94 94 94 95 96 98 100 100 100 100 100 100 100 100 100 100 100 100 100 100 100 100 100 100 100 100 100 100 100 100
78 79 81 84 88 90 91 90 89 88 87 88 89 91 93 95 96 98 100 100 98 97 96 92 87 88 92 93 92 92 92 92 91 90 89 89 88 87 87 88 88 88 88 89 92 95 97 96 95 97 98 98 96 95 96 96 97 97 98 99 100 101 101 100 100 100 100 100 100 100 100 100 100 100 100 100 100 100 100 100 100 100 100 100 100
83 81 81 83 86 88 89 89 89 90 90 89 89 90 91 93 95 98 100 101 100 99 99 96 90 88 90 92 92 92 93 94 93 91 90 89 89 89 91 91 90 89 89 90 93 96 98 99 97 97 98 99 99 98 98 98 98 99 100 100 100 100 100 100 100 100 100 100 100 100 100 100 100 100 100 100 100 100 100 100 100 100 100 100 100
87 85 83 83 84 86 87 88 88 89 90 89 89 90 90 90 92 97 100 102 102 101 101 99 94 91 91 94 93 92 93 95 94 93 93 93 93 92 92 91 91 90 89 90 94 97 98 99 100 99 99 99 99 99 99 100 100 100 100 100 100 100 100 100 100 99 99 99 98 98 99 99 100 100 100 100 100 100 100 100 100 100 100 100 100
90 89 87 84 84 85 86 87 87 87 88 89 88 89 89 89 90 94 98 101 101 101 101 101 98 94 93 95 96 95 94 95 96 95 95 95 95 95 93 92 91 90 89 90 93 97 99 100 100 101 100 100 100 100 99 99 100 100 100 100 100 100 100 99 100 99 99 98 98 97 97 97 98 99 99 100 100 100 100 100 101 101 101 101 100
90 91 90 88 85 84 85 86 87 86 87 88 88 88 88 88 89 91 94 98 99 99 100 102 101 97 94 95 99 98 96 96 97 98 97 97 97 96 95 94 93 91 90 90 93 97 99 100 101 101 101 101 101 101 100 100 100 100 100 100 100 100 100 100 100 100 99 99 98 98 97 97 97 97 97 97 97 98 98 99 100 100 100 100 101
90 90 91 91 89 87 85 85 87 87 86 86 88 88 88 88 88 89 91 93 96 98 99 100 101 100 96 95 98 101 99 97 98 99 99 99 99 98 96 96 94 92 90 90 92 96 100 101 101 101 101 101 101 100 100 100 100 100 100 100 100 100 100 100 99 100 100 100 100 99 99 99 98 97 97 96 95 95 94 95 96 96 97 99 99
91 91 92 93 93 92 90 87 87 87 87 86 86 87 88 88 88 88 89 91 93 96 98 98 99 100 99 97 97 99 101 100 99 100 100 100 99 99 98 97 96 94 91 90 92 96 100 101 102 101 101 100 100 100 100 100 100 100 100 101 101 101 100 100 100 99 99 99 100 100 100 100 100 99 98 97 96 94 94 93 93 93 94 95 96
94 94 94 94 94 94 94 91 89 87 88 87 87 86 87 88 88 88 88 89 91 93 96 97 98 98 99 99 97 98 100 101 101 101 101 101 100 99 98 97 97 95 92 90 91 95 99 101 102 102 101 101 100 100 100 100 100 100 100 100 101 100 100 100 100 100 99 99 99 99 99 99 100 100 100 99 97 96 96 95 94 93 93 93 93
98 98 97 97 96 96 96 95 94 91 88 88 88 87 87 87 88 88 88 88 89 91 93 96 97 97 97 98 98 97 98 101 102 102 102 102 102 100 98 97 98 96 94 91 91 94 98 101 102 102 102 102 101 100 100 100 100 100 100 100 100 100 100 100 100 101 101 100 100 99 99 99 99 99 100 99 99 98 97 96 95 94 94 94 94
101 101 100 100 99 98 97 97 97 96 93 90 89 88 88 87 87 88 88 88 89 90 91 92 95 97 97 97 97 97 98 100 102 103 103 103 103 102 101 100 99 98 95 93 92 93 97 100 101 101 102 102 102 101 101 100 100 100 100 100 100 100 100 100 100 100 100 101 101 101 101 100 100 100 100 100 100 99 99 98 98 97 96 96 96
102 102 102 101 100 99 99 99 99 99 99 96 92 90 89 88 87 87 87 87 88 89 90 90 92 95 96 96 96 96 98 99 101 103 103 104 104 103 102 101 101 100 97 95 93 93 96 99 100 100 101 102 102 102 102 101 100 100 100 100 100 100 100 100 100 100 100 100 100 100 101 101 100 101 101 101 101 101 101 101 100 100 100 100 100
101 102 102 102 102 101 101 100 100 100 101 101 98 94 91 90 89 88 87 87 87 88 89 90 90 92 94 95 95 95 96 99 101 102 103 104 104 104 102 101 101 101 100 97 94 93 96 99 100 100 100 101 102 103 103 102 101 100 100 100 100 100 100 100 100 100 100 101 100 100 100 100 100 100 100 100 100 101 100 100 100 100 101 101 102
101 102 102 102 102 102 101 101 101 101 101 102 102 98 94 91 91 90 89 88 88 87 88 89 89 90 91 94 95 95 95 96 99 102 103 103 104 105 104 102 101 101 101 100 96 94 95 98 100 100 100 100 101 102 103 103 102 101 101 100 100 100 100 100 100 100 100 100 100 100 100 100 100 100 100 100 100 100 100 100 101 101 101 102 103
101 102 102 101 102 102 102 102 102 102 102 101 102 102 99 94 92 92 92 91 89 88 88 88 89 90 90 92 94 96 95 95 97 100 103 103 103 104 105 104 102 101 101 101 98 95 95 97 100 100 100 100 101 101 102 103 102 102 101 100 100 100 100 100 100 100 100 100 100 100 100 100 100 100 100 100 100 100 100 100 101 101 102 102 102
101 101 101 101 101 101 102 102 101 102 102 102 101 102 102 98 94 93 94 94 92 90 89 88 89 90 91 91 93 95 96 96 96 98 101 103 103 103 105 105 104 101 100 101 101 99 96 96 99 101 101 100 100 100 101 102 102 102 101 100 100 100 100 100 100 100 100 100 100 100 100 100 100 100 100 100 100 100 100 100 100 101 101 101 102